Location: Moscow Pond
(43.6842°N, 73.2366°W)
Time: 20:33:40
(UTC+00:00)

Gbstr 26 Del rocket - Pass Details

Date: 08 November 2025
Orbit: 489 x 1219 km, 51.8° (Epoch: 10 December)

Event Time Altitude Azimuth Distance (km) Brightness Sun altitude
Exits shadow 10:47:25 12° 278° (W) 2,054 5.1 -9.6°
Maximum altitude 10:51:53 43° 348° (NNW) 1,138 4.2 -8.8°
Drops below altitude 10° 10:57:49 10° 59° (ENE) 2,670 7.0 -7.8°
Sets 11:00:51 0° 66° (ENE) 3,742 7.9 -7.2°
